#timestamp,LO_Frequency,Hit 
1503360015.2,286047001.4,N
1503360035.1,286046999.9,N
1503360036.0,286046999.9,N
1503360055.8,286047001.1,N
1503360075.6,286046996.8,N
1503360095.5,286046999.2,N
1503360115.3,286046997.0,N
1503360135.1,286047000.0,N
1503360155.8,286047004.2,N
1503360175.7,286047002.1,N
1503360195.5,286046999.9,N
1503360215.3,286047001.3,N
1503360235.2,286047001.0,N
1503360255.9,286047001.4,N
1503360275.7,286047001.5,N
1503360295.6,286047001.5,N
1503360315.4,286047002.8,N
1503360335.2,286047001.8,N
1503360355.1,286047003.9,N
1503360356.0,286047003.9,N
1503360375.8,286046999.9,N
1503360395.6,286047002.5,N
1503360415.5,286047000.1,N
1503360435.3,286047000.2,N
1503360455.1,286047002.3,N
1503360475.8,286046999.8,N
1503360495.7,286047000.3,N
1503360515.5,286046999.7,N
1503360535.3,286046998.1,N
1503360555.2,286047001.9,N
1503360575.0,286047002.4,N
1503360575.9,286047002.4,N
1503360595.7,286047002.4,N
1503360615.6,286047004.5,N
1503360635.4,286047006.4,P
1503360655.2,286047003.7,N
1503360675.1,286047003.2,N
1503360676.0,286047003.2,N
1503360695.8,286047003.3,N
1503360715.7,286047007.2,P
1503360735.5,286047003.1,N
1503360755.3,286047003.6,N
1503360775.2,286047006.5,P
1503360795.9,286047004.4,P
1503360815.7,286047002.4,N
1503360835.6,286047002.5,N
1503360855.4,286047002.6,N
1503360875.2,286046999.6,N
1503360895.0,286046997.2,N
1503360896.0,286046997.2,N
1503360915.8,286046999.5,N
1503360935.6,286046999.6,N
1503360955.4,286046998.5,N
1503360975.3,286047000.8,N
1503360995.1,286047000.8,N
1503361015.8,286047000.5,N
1503361035.7,286047003.7,N
1503361055.5,286047001.7,N
1503361075.3,286047000.6,N
1503361095.2,286047002.8,N
1503361115.9,286046999.7,N
1503361135.7,286047004.3,N
1503361155.6,286047008.4,P
1503361175.4,286047005.9,N
1503361195.2,286047003.9,N
1503361215.1,286047002.1,N
1503361216.0,286047002.1,N
1503361235.8,286047000.0,N
1503361255.6,286047000.1,N
1503361275.4,286047004.3,N
1503361295.3,286047003.4,N
1503361315.1,286047008.5,P
1503361335.9,286047009.0,P
1503361355.7,286047005.1,N
1503361375.5,286047004.2,N
1503361395.3,286047003.9,N
1503361415.2,286047003.1,N
1503361435.0,286047003.5,N
1503361435.9,286047003.5,N
1503361455.7,286047003.1,N
1503361475.6,286047006.0,N
1503361495.4,286047002.3,N
1503361515.2,286047003.7,N
1503361535.1,286047004.0,N
1503361536.0,286047004.0,N
1503361555.8,286047002.3,N
1503361575.6,286046999.8,N
1503361595.5,286046998.1,N
1503361615.3,286047001.2,N
1503361635.1,286046996.5,N
1503361655.9,286046999.4,N
1503361675.7,286047000.3,N
1503361695.5,286047002.6,N
1503361715.3,286047002.4,N
1503361735.2,286047002.4,N
1503361755.0,286047000.4,N
1503361755.9,286047000.4,N
1503361775.7,286047001.8,N
1503361795.6,286047001.9,N
1503361815.4,286047001.7,N
1503361835.2,286047004.4,N
1503361855.1,286047005.7,N
1503361856.0,286047005.7,N
1503361875.8,286047005.1,N
1503361895.6,286047005.6,N
1503361915.5,286047004.6,N
1503361935.3,286047003.5,N
1503361955.1,286047002.1,N
1503361975.9,286047001.5,N
1503361995.7,286047005.6,N
1503362015.5,286047003.7,N
1503362035.3,286047001.3,N
1503362055.2,286047004.3,N
1503362075.0,286047002.3,N
1503362075.9,286047002.3,N
1503362095.7,286047001.3,N
1503362115.6,286047003.6,N
1503362135.4,286047004.4,N
1503362155.2,286047001.8,N
1503362175.1,286047005.2,N
1503362176.0,286047005.2,N
1503362195.8,286047007.0,P
1503362215.6,286047003.1,N
1503362235.5,286047003.7,N
1503362255.3,286047004.8,N
1503362275.1,286047004.0,N
1503362295.9,286047000.2,N
1503362315.7,286047000.6,N
1503362335.5,286047000.6,N
1503362355.4,286047001.0,N
1503362375.2,286047002.9,N
1503362395.0,286047006.0,N
1503362395.9,286047006.0,N
1503362415.8,286047002.2,N
1503362435.6,286047004.4,N
1503362455.4,286047002.6,N
1503362475.3,286047003.1,N
1503362495.1,286046999.7,N
1503362496.0,286046999.7,N
1503362515.8,286047002.3,N
1503362535.6,286047002.6,N
1503362555.5,286047002.5,N
1503362575.3,286047003.7,N
1503362595.1,286047002.3,N
1503362615.9,286047000.2,N
1503362635.7,286047002.8,N
1503362655.5,286047001.6,N
1503362675.4,286047002.3,N
1503362695.2,286047004.2,N
1503362715.0,286047004.4,N
1503362715.9,286047004.4,N
1503362735.8,286047003.9,N
1503362755.6,286047004.3,N
1503362775.4,286047003.4,N
1503362795.2,286047004.1,N
1503362815.1,286047001.9,N
1503362816.0,286047001.9,N
1503362835.8,286047005.2,P
1503362855.7,286047001.5,N
1503362875.5,286047003.6,N
1503362895.3,286047001.4,N
1503362915.2,286047001.6,N
1503362935.9,286047001.6,N
1503362955.7,286047003.1,N
1503362975.5,286047003.1,N
1503362995.4,286047003.1,N
1503363015.2,286047004.1,P
1503363035.0,286047001.0,N
1503363036.0,286047001.0,N
1503363055.8,286046998.7,N
1503363075.6,286046998.7,N
1503363095.4,286046998.6,N
1503363115.3,286046998.3,N
1503363135.1,286047000.9,N
1503363155.8,286047003.6,N
1503363175.7,286047006.0,N
1503363195.5,286047003.6,N
1503363215.3,286047004.3,N
1503363235.2,286047007.3,N
1503363255.9,286047007.4,N
1503363275.7,286047009.2,P
1503363295.6,286047003.2,N
1503363315.4,286047005.8,N
1503363335.2,286047002.9,N
1503363355.1,286047003.9,N
1503363356.0,286047003.9,N
1503363375.8,286047002.0,N
1503363395.6,286047004.3,N
1503363415.5,286047004.1,N
1503363435.3,286047004.3,N
1503363455.1,286047002.1,N
1503363475.9,286047001.4,N
1503363495.7,286047004.7,N
1503363515.5,286047003.1,N
1503363535.3,286047004.2,N
1503363555.2,286047003.6,N
1503363575.0,286047007.6,P
1503363575.9,286047007.6,P
1503363595.8,286047005.4,P
